FW7284 Weather Reports


time (UTC)temp
C
wind
direction
speed
KPH
gust
KPH
rain 1hr
cm
rain 24hr
cm
rain mn
cm
humidity
%
barometer
mb
20260505070030 7 256 12.9 25.7 0.00 0.08 0.00 79 1008.1
20260505064530 7 246 12.9 24.1 0.00 0.10 0.00 79 1007.8
20260505063030 7 241 12.9 27.4 0.00 0.10 0.00 78 1007.4
20260505061530 7 266 14.5 24.1 0.00 0.10 0.00 78 1007.1
20260505060032 7 262 14.5 25.7 0.00 0.10 0.00 78 1006.9
20260505054537 7 258 12.9 22.5 0.00 0.10 0.00 78 1006.7
20260505053038 7 271 11.3 17.7 0.00 0.10 0.00 78 1006.5
20260505051528 7 264 9.7 17.7 0.00 0.10 0.00 78 1006.3
20260505041528 8 229 8.0 17.7 0.00 0.15 0.00 75 1005.6
20260505040028 8 265 4.8 19.3 0.00 0.15 0.00 74 1005.6
20260505034529 8 279 4.8 22.5 0.00 0.15 0.00 74 1005.3
20260505033037 8 281 11.3 22.5 0.00 0.15 0.00 74 1005.1
20260505031529 8 267 9.7 20.9 0.00 0.15 0.00 75 1004.9
20260505030029 8 256 8.0 27.4 0.00 0.15 0.00 74 1004.5
20260505024531 8 282 12.9 25.7 0.00 0.15 0.15 74 1004.3
20260505023028 8 262 14.5 32.2 0.00 0.15 0.15 74 1004.2
20260505021528 8 264 11.3 29.0 0.00 0.15 0.15 74 1003.7
20260505020029 8 256 9.7 29.0 0.00 0.15 0.15 73 1003.6
20260505014532 8 247 12.9 25.7 0.00 0.18 0.15 73 1003.5
20260505013031 9 241 11.3 27.4 0.00 0.18 0.15 72 1003.5
20260505011531 9 237 14.5 27.4 0.00 0.18 0.15 70 1003.4
20260505010031 10 242 14.5 25.7 0.00 0.18 0.15 67 1003.3
20260505004539 10 230 9.7 22.5 0.00 0.30 0.15 66 1003.3
20260505003028 10 234 14.5 33.8 0.00 0.30 0.15 64 1003.0
20260505001532 10 250 11.3 22.5 0.00 0.30 0.15 63 1002.8
20260505000034 10 216 11.3 19.3 0.00 0.30 0.15 63 1002.8
20260504234535 10 221 6.4 19.3 0.00 0.74 0.15 63 1002.5
20260504233031 10 219 4.8 14.5 0.00 0.74 0.15 61 1002.3
20260504231540 10 256 3.2 11.3 0.00 0.74 0.15 60 1002.2
20260504230029 10 261 9.7 22.5 0.00 0.74 0.15 59 1002.1
20260504224529 10 253 6.4 22.5 0.00 0.94 0.15 59 1002.0
20260504223030 11 260 12.9 22.5 0.00 0.94 0.15 57 1001.8
20260504221530 11 279 11.3 27.4 0.00 0.94 0.15 56 1001.5
20260504220030 11 258 16.1 29.0 0.00 0.94 0.15 53 1001.4
20260504214535 11 256 17.7 40.2 0.00 1.50 0.15 54 1001.3
20260504213030 12 280 17.7 38.6 0.00 1.50 0.15 53 1001.1
20260504211531 11 268 29.0 48.3 0.00 1.50 0.15 52 1000.9
20260504210030 11 254 22.5 53.1 0.00 1.50 0.15 57 1000.8
20260504204601 11 289 22.5 41.8 0.00 1.52 0.15 59 1000.5
20260504203030 11 273 32.2 49.9 0.00 1.52 0.15 60 1000.3
20260504201530 11 271 35.4 54.7 0.00 1.52 0.15 62 999.9
20260504200034 11 262 19.3 46.7 0.00 1.52 0.15 66 999.5
20260504194536 11 265 22.5 43.5 0.00 1.55 0.15 67 999.2
20260504193028 10 260 24.1 41.8 0.00 1.55 0.15 71 998.9
20260504191530 10 288 24.1 40.2 0.00 1.55 0.15 72 998.8
20260504190034 10 275 22.5 40.2 0.00 1.55 0.15 75 998.5
20260504184530 8 262 22.5 38.6 0.00 1.63 0.15 77 998.5
20260504183030 8 284 20.9 37.0 0.00 1.63 0.15 78 998.2
20260504181530 8 291 19.3 38.6 0.00 1.63 0.15 80 997.9
20260504180028 7 277 17.7 41.8 0.00 1.63 0.15 80 997.8
20260504174527 7 264 20.9 35.4 0.00 1.63 0.15 80 997.5
20260504173028 7 258 20.9 38.6 0.00 1.63 0.15 82 997.2
20260504171540 7 277 22.5 35.4 0.00 1.63 0.15 82 996.9
20260504081530 3 181 22.5 41.8 0.00 1.55 0.08 89 977.0